FW3610 Weather Reports


time (UTC)temp
C
wind
direction
speed
KPH
gust
KPH
rain 1hr
cm
rain 24hr
cm
rain mn
cm
humidity
%
barometer
mb
20260506150059 17 271 19.3 0.0 0.00 0.00 0.00 32 1008.7
20260506144602 15 246 25.7 0.0 0.00 0.00 0.00 33 1008.2
20260506143053 15 267 25.7 0.0 0.00 0.00 0.00 33 1008.3
20260506141553 14 274 24.1 0.0 0.00 0.00 0.00 35 1008.3
20260506140058 13 272 20.9 0.0 0.00 0.00 0.00 35 1008.2
20260506134545 12 259 16.1 0.0 0.00 0.00 0.00 40 1008.4
20260506133047 12 232 11.3 0.0 0.00 0.00 0.00 49 1008.5
20260506131537 8 244 11.3 0.0 0.00 0.00 0.00 64 1008.5
20260506130037 3 237 11.3 0.0 0.00 0.00 0.00 77 1008.3
20260506124533 3 228 11.3 0.0 0.00 0.00 0.00 80 1008.1
20260506123032 2 239 11.3 0.0 0.00 0.00 0.00 82 1008.0
20260506121531 2 234 11.3 0.0 0.00 0.00 0.00 83 1007.6
20260506120036 2 232 11.3 0.0 0.00 0.00 0.00 83 1007.3
20260506114525 2 236 9.7 0.0 0.00 0.00 0.00 83 1007.1
20260506113026 2 248 9.7 0.0 0.00 0.00 0.00 81 1007.1
20260506111526 2 256 8.0 0.0 0.00 0.00 0.00 82 1007.0
20260506110021 1 271 4.8 0.0 0.00 0.00 0.00 86 1006.6
20260506104518 1 250 4.8 0.0 0.00 0.00 0.00 82 1006.5
20260506103017 2 231 8.0 0.0 0.00 0.00 0.00 79 1006.1
20260506101519 1 275 4.8 0.0 0.00 0.00 0.00 87 1006.2
20260506100028 1 282 3.2 0.0 0.00 0.00 0.00 84 1006.1
20260506094508 2 287 4.8 0.0 0.00 0.00 0.00 80 1006.1
20260506093005 4 271 8.0 0.0 0.00 0.00 0.00 76 1005.9
20260506091501 3 262 3.2 0.0 0.00 0.00 0.00 79 1005.6
20260506090057 5 275 6.4 0.0 0.00 0.00 0.00 75 1005.2
20260506084558 6 277 4.8 0.0 0.00 0.00 0.00 76 1005.5
20260506083058 6 277 9.7 0.0 0.00 0.00 0.00 72 1005.0
20260506081557 6 266 6.4 0.0 0.00 0.00 0.00 77 1004.9
20260506073049 5 306 1.6 0.0 0.00 0.00 0.00 82 1004.8
20260506071546 5 306 0.0 0.0 0.00 0.00 0.00 83 1004.9
20260506061537 6 328 8.0 0.0 0.00 0.00 0.00 79 1004.4
20260506044527 9 311 12.9 0.0 0.00 0.00 0.03 66 1003.5
20260506043024 10 323 12.9 0.0 0.00 0.00 0.03 62 1003.2
20260506041521 9 227 8.0 0.0 0.00 0.00 0.03 72 1002.8
20260506040033 9 234 9.7 0.0 0.00 0.00 0.03 74 1002.6
20260506034521 8 225 6.4 0.0 0.00 0.00 0.03 72 1002.4
20260506033017 7 223 8.0 0.0 0.00 0.00 0.03 74 1002.1
20260506031514 7 250 4.8 0.0 0.00 0.00 0.03 71 1002.1
20260506030013 8 250 8.0 0.0 0.00 0.00 0.03 65 1001.6
20260506024508 8 261 8.0 0.0 0.00 0.00 0.03 65 1001.3
20260506023006 10 253 11.3 0.0 0.00 0.00 0.03 61 1001.1
20260506021511 10 229 17.7 0.0 0.00 0.00 0.03 59 1000.9
20260506020004 11 246 9.7 0.0 0.00 0.00 0.03 60 1001.3
20260506014504 11 279 8.0 0.0 0.00 0.00 0.03 58 1000.0
20260506013005 11 298 11.3 0.0 0.00 0.00 0.03 55 999.3
20260506011504 13 294 14.5 0.0 0.00 0.00 0.03 50 999.2
20260506010003 17 310 16.1 0.0 0.00 0.00 0.03 41 999.0
20260506004502 17 285 17.7 0.0 0.00 0.00 0.03 40 998.9
20260506003001 18 296 16.1 0.0 0.00 0.00 0.03 39 998.7
20260506001600 18 286 19.3 0.0 0.00 0.00 0.03 40 998.6
20260505234610 19 343 19.3 0.0 0.00 0.00 0.03 40 998.7
20260505233058 20 287 20.9 0.0 0.00 0.00 0.03 40 998.5
20260505231558 19 324 22.5 0.0 0.00 0.00 0.03 40 998.3
20260505230056 20 295 24.1 0.0 0.00 0.00 0.03 41 998.4
20260505224557 19 297 27.4 0.0 0.00 0.00 0.03 41 998.3
20260505223055 20 319 29.0 0.0 0.00 0.00 0.03 39 998.7
20260505221555 19 332 16.1 0.0 0.00 0.00 0.03 40 998.5
20260505220054 22 315 17.7 0.0 0.00 0.00 0.03 32 998.0
20260505214622 22 286 19.3 0.0 0.00 0.00 0.03 33 998.0
20260505213102 22 316 25.7 0.0 0.00 0.00 0.03 33 998.2
20260505211552 22 298 29.0 0.0 0.00 0.00 0.03 31 998.4
20260505210056 21 308 33.8 0.0 0.00 0.00 0.03 35 998.6
20260505204557 22 287 16.1 0.0 0.00 0.00 0.03 37 998.5
20260505203054 17 257 19.3 0.0 0.00 0.00 0.03 58 999.3
20260505201553 18 300 25.7 0.0 0.00 0.00 0.03 42 998.7
20260505200100 22 242 27.4 0.0 0.00 0.00 0.03 30 998.9
20260505194549 25 234 24.1 0.0 0.00 0.00 0.03 29 998.9
20260505193048 23 231 25.7 0.0 0.00 0.00 0.03 33 999.3
20260505191542 22 215 24.1 0.0 0.00 0.00 0.03 35 999.6
20260505190040 22 188 24.1 0.0 0.00 0.00 0.03 37 999.8
20260505184539 21 237 22.5 0.0 0.00 0.00 0.03 39 1000.1
20260505183038 22 210 20.9 0.0 0.00 0.00 0.03 40 1000.0
20260505181540 23 222 20.9 0.0 0.00 0.00 0.03 39 1000.1
20260505180057 21 244 19.3 0.0 0.00 0.00 0.03 45 1000.2
20260505174553 18 238 16.1 0.0 0.00 0.00 0.03 50 1000.5
20260505173039 19 209 16.1 0.0 0.00 0.00 0.03 52 1000.6
20260505171530 15 213 14.5 0.0 0.00 0.00 0.03 66 1000.4
20260505170027 13 213 14.5 0.0 0.00 0.00 0.03 81 1000.6
20260505164526 12 219 12.9 0.0 0.00 0.00 0.03 84 1000.5
20260505163026 11 225 14.5 0.0 0.00 0.00 0.03 88 1000.6
20260505161525 10 216 14.5 0.0 0.00 0.00 0.03 89 1000.7
20260505153018 12 239 14.5 0.0 0.00 0.00 0.00 67 1000.2
20260505151516 12 246 16.1 0.0 0.00 0.00 0.00 58 1000.3